2 lipca 2022

Czas Kod Pogoda Temp. Widoczność Sufit Wiatr METAR/SPECI
7:00 pm
V
68 °F 25 mi 22.000 ft 160° 160° 9 kt METAR CYVR 030200Z 16009KT 25SM FEW055 FEW170 SCT200 BKN220 20/13 A2983 RMK SC1AS2CS1CI2 SC TR TCU EMBD E SLP104 DENSITY ALT 800FT
6:00 pm
V
68 °F 25 mi 22.000 ft 180° 180° 5 kt METAR CYVR 030100Z 18005KT 25SM SCT170 SCT200 BKN220 BKN240 20/13 A2984 RMK AS3CC1CS2CI2 CC TR SLP107 DENSITY ALT 700FT
5:00 pm
V
66 °F 25 mi 19.000 ft 200° 200° 7 kt METAR CYVR 030000Z 20007KT 180V240 25SM BKN190 BKN240 19/15 A2985 RMK AS5CI2 SLP111 DENSITY ALT 600FT
4:00 pm
V
66 °F 25 mi 18.000 ft 220° 220° 6 kt METAR CYVR 022300Z 22006KT 25SM BKN180 BKN200 19/16 A2987 RMK AS5CS2 SLP118 DENSITY ALT 600FT
3:00 pm
V
68 °F 25 mi 21.000 ft 210° 210° 6 kt METAR CYVR 022200Z 21006KT 190V250 25SM SCT180 BKN210 BKN240 20/15 A2989 RMK AS4CS2CI1 SLP124 DENSITY ALT 600FT
2:00 pm
V
66 °F 25 mi 20.000 ft 240° 240° 6 kt METAR CYVR 022100Z 24006KT 200V280 25SM SCT180 BKN200 BKN240 19/15 A2991 RMK AS3CS2CI2 SLP132 DENSITY ALT 500FT
1:00 pm
V
66 °F 25 mi 23.000 ft 230° 230° 5 kt METAR CYVR 022000Z 23005KT 190V290 25SM SCT200 BKN230 19/13 A2993 RMK CS4CI3 SLP136 DENSITY ALT 500FT
12:00 pm
V
63 °F 25 mi 24.000 ft 230° 230° 8 kt METAR CYVR 021900Z 23008KT 25SM BKN240 17/13 A2994 RMK CI6 SLP141 DENSITY ALT 300FT
11:00 am
V
66 °F 25 mi 24.000 ft 140° 140° 6 kt METAR CYVR 021800Z 14006KT 25SM BKN240 19/13 A2996 RMK CI7 SLP147 DENSITY ALT 400FT
10:00 am
V
64 °F 25 mi - 170° 170° 6 kt METAR CYVR 021700Z 17006KT 100V180 25SM SCT240 18/13 A2996 RMK CI3 SLP149 DENSITY ALT 400FT
9:00 am
V
63 °F 25 mi - 150° 150° 4 kt METAR CYVR 021600Z 15004KT 100V180 25SM SCT240 17/13 A2997 RMK CI3 SLP152 DENSITY ALT 200FT
8:00 am
V
61 °F 25 mi - 100° 100° 7 kt METAR CYVR 021500Z 10007KT 25SM FEW240 16/13 A2998 RMK CI1 SLP155 DENSITY ALT 100FT
7:00 am
V
57 °F 25 mi - 090° 090° 6 kt METAR CYVR 021400Z 09006KT 25SM FEW015 FEW090 FEW230 14/13 A2998 RMK SC1AC1CI1 SC TR AC TR CI TR SLP156
6:00 am
V
55 °F 20 mi - 140° 140° 3 kt METAR CYVR 021300Z 14003KT 20SM FEW073 FEW210 SCT220 13/12 A2998 RMK AC1CI2CI1 AC TR SLP156
5:00 am
V
55 °F 20 mi - 130° 130° 7 kt METAR CYVR 021200Z 13007KT 20SM FEW022 FEW067 FEW220 FEW230 13/13 A2998 RMK SC1AC1CI2CI1 SC TR AC TR CI TR SLP155
4:00 am
V
57 °F 15 mi - 130° 130° 5 kt METAR CYVR 021100Z 13005KT 15SM FEW070 FEW240 14/13 A2998 RMK AC1CI2 AC TR SLP153
3:00 am
V
57 °F 15 mi - 130° 130° 5 kt METAR CYVR 021000Z 13005KT 15SM SKC 14/13 A2998 RMK SLP153
2:00 am
V
59 °F 15 mi - 120° 120° 6 kt METAR CYVR 020900Z 12006KT 15SM SKC 15/14 A2997 RMK SLP152
1:00 am
V
59 °F 15 mi - 100° 100° 5 kt METAR CYVR 020800Z 10005KT 15SM SKC 15/13 A2997 RMK SLP151
12:00 am
V
63 °F 15 mi - 120° 120° 9 kt METAR CYVR 020700Z 12009KT 15SM SKC 17/13 A2998 RMK SLP153 DENSITY ALT 200FT

1 lipca 2022

Czas Kod Pogoda Temp. Widoczność Sufit Wiatr METAR/SPECI
11:00 pm
V
63 °F 15 mi - 100° 100° 10 kt METAR CYVR 020600Z 10010KT 15SM SKC 17/13 A2998 RMK SLP153 DENSITY ALT 200FT
10:00 pm
V
63 °F 15 mi - 090° 090° 9 kt METAR CYVR 020500Z 09009KT 15SM SKC 17/13 A2998 RMK SLP154 DENSITY ALT 300FT
9:00 pm
V
68 °F 25 mi - 100° 100° 6 kt METAR CYVR 020400Z 10006KT 25SM FEW049 20/14 A2998 RMK SC1 SC TR SLP154 DENSITY ALT 600FT
8:00 pm
V
72 °F 25 mi - 180° 180° 6 kt METAR CYVR 020300Z 18006KT 25SM FEW045 22/13 A2998 RMK SC1 SC TR CU ASOCTD W SLP153 DENSITY ALT 800FT
7:00 pm
V
72 °F 25 mi - 200° 200° 9 - 16 kt METAR CYVR 020200Z 20009G16KT 180V250 25SM FEW040 22/13 A2998 RMK SC1 SC TR TCU TOPS W SLP154 DENSITY ALT 900FT
6:00 pm
V
73 °F 25 mi - 200° 200° 7 kt METAR CYVR 020100Z 20007KT 25SM FEW040 23/15 A2999 RMK SC1 SC TR TCU EMBD SLP157 DENSITY ALT 900FT
5:00 pm
V
73 °F 25 mi - 220° 220° 8 kt METAR CYVR 020000Z 22008KT 25SM FEW040TCU 23/14 A3001 RMK TCU1 TCU TR SLP164 DENSITY ALT 900FT
4:00 pm
V
73 °F 25 mi - 210° 210° 7 kt METAR CYVR 012300Z 21007KT 25SM FEW040TCU 23/15 A3002 RMK TCU1 TCU TR SLP169 DENSITY ALT 900FT
3:00 pm
V
73 °F 25 mi - 210° 210° 9 - 20 kt METAR CYVR 012200Z 21009G20KT 190V350 25SM FEW040TCU 23/16 A3004 RMK TCU1 TCU TR SLP174 DENSITY ALT 800FT
2:00 pm
V
73 °F 25 mi - 220° 220° 8 kt METAR CYVR 012100Z 22008KT 180V240 25SM FEW040TCU 23/16 A3005 RMK TCU1 TCU TR SLP177 DENSITY ALT 900FT
1:00 pm
V
72 °F 25 mi - 130° 130° 5 kt METAR CYVR 012000Z 13005KT 090V200 25SM FEW040TCU 22/14 A3006 RMK TCU1 TCU TR SLP183 DENSITY ALT 700FT
12:00 pm
V
70 °F 25 mi - 130° 130° 8 kt METAR CYVR 011900Z 13008KT 25SM FEW040TCU 21/14 A3007 RMK TCU1 TCU TR SLP184 DENSITY ALT 600FT
11:00 am
V
68 °F 25 mi - 150° 150° 7 kt METAR CYVR 011800Z 15007KT 25SM FEW040 FEW150 20/14 A3007 RMK CU1AC1 CU TR AC TR TCU EMBD SLP186 DENSITY ALT 400FT
10:00 am
V
66 °F 25 mi - 140° 140° 5 kt METAR CYVR 011700Z 14005KT 090V170 25SM FEW040 19/13 A3007 RMK CU1 CU TR TCU EMBD SLP185 DENSITY ALT 400FT
9:00 am
V
64 °F 25 mi - 120° 120° 8 kt METAR CYVR 011600Z 12008KT 25SM FEW040 FEW120 18/13 A3008 RMK CU1AC1 CU TR AC TR SLP187 DENSITY ALT 200FT
8:00 am
V
63 °F 25 mi - 110° 110° 10 kt METAR CYVR 011500Z 11010KT 25SM FEW120 FEW210 17/14 A3008 RMK AC1CC1 AC TR CC TR SLP187 DENSITY ALT 100FT
7:00 am
V
59 °F 20 mi - 140° 140° 5 kt METAR CYVR 011400Z 14005KT 20SM FEW120 FEW210 15/14 A3007 RMK AC1CC1 AC TR SLP185
6:00 am
V
57 °F 20 mi - 090° 090° 5 kt METAR CYVR 011300Z 09005KT 20SM FEW037 FEW055 FEW120 14/14 A3006 RMK CU1SC1AC1 CU TR SC TR AC TR SLP182
5:00 am
V
57 °F 20 mi - 080° 080° 5 kt METAR CYVR 011200Z 08005KT 20SM FEW053 FEW080 FEW120 14/14 A3006 RMK SC1AC1AC1 SC TR AC TR AC TR SLP180
4:00 am
V
57 °F 15 mi - 100° 100° 5 kt METAR CYVR 011100Z 10005KT 15SM FEW070 FEW150 FEW230 14/13 A3005 RMK AC1AC1CI1 AC TR AC TR CI TR SLP179
3:00 am
V
59 °F 15 mi - 120° 120° 3 kt METAR CYVR 011000Z 12003KT 15SM FEW070 15/13 A3005 RMK AC1 AC TR SLP178
2:00 am
V
59 °F 15 mi - 090° 090° 5 kt METAR CYVR 010900Z 09005KT 15SM FEW070 15/13 A3005 RMK AC1 AC TR SLP178
1:00 am
V
61 °F 15 mi - 090° 090° 7 kt METAR CYVR 010800Z 09007KT 15SM SKC 16/14 A3005 RMK SLP178
12:00 am
V
63 °F 15 mi - 080° 080° 4 kt METAR CYVR 010700Z 08004KT 15SM FEW055 FEW075 17/14 A3005 RMK SC1AC1 SC TR AC TR SLP178 DENSITY ALT 100FT

30 czerwca 2022

Czas Kod Pogoda Temp. Widoczność Sufit Wiatr METAR/SPECI
11:00 pm
V
63 °F 15 mi - 100° 100° 3 kt METAR CYVR 010600Z 10003KT 15SM FEW054 FEW075 FEW170 17/13 A3005 RMK SC1AC1AC1 SC TR AC TR AC TR SLP178 DENSITY ALT 200FT
10:00 pm
V
64 °F 15 mi - 190° 190° 3 kt METAR CYVR 010500Z 19003KT 140V250 15SM FEW058 FEW070 FEW170 18/14 A3005 RMK SC1AC1AC1 SC TR AC TR AC TR SLP177 DENSITY ALT 200FT
9:00 pm
V
64 °F 30 mi - 190° 190° 6 kt METAR CYVR 010400Z 19006KT 30SM FEW040 FEW060 FEW170 18/15 A3004 RMK CU1SC1AC1 CU TR SC TR AC TR SLP174 DENSITY ALT 200FT
8:00 pm
V
66 °F 30 mi - 210° 210° 5 kt METAR CYVR 010300Z 21005KT 30SM FEW037 FEW060 FEW180 19/16 A3004 RMK CU1SC1AC1 CU TR SC TR AC TR CONTRAILS SLP175 DENSITY ALT 300FT
7:00 pm
V
68 °F 30 mi - 270° 270° 5 kt METAR CYVR 010200Z 27005KT 30SM FEW037 FEW057 FEW180 20/16 A3005 RMK CU1SC1AC1 SC TR AC TR TCU TOPS W SLP177 DENSITY ALT 500FT
6:00 pm
V
70 °F 30 mi - 290° 290° 6 kt METAR CYVR 010100Z 29006KT 30SM FEW045 FEW050 FEW180 FEW210 21/16 A3006 RMK CU1CU1AC1CI1 CU TR AC TR CI TR TCU EMBEDED TCU TOPS W SLP181 DENSITY ALT 500FT
5:00 pm
V
70 °F 30 mi - 260° 260° 8 kt METAR CYVR 010000Z 26008KT 30SM FEW050 FEW170 FEW190 21/16 A3008 RMK CU2AC1AC1 AC TR AC TR SLP187 DENSITY ALT 600FT
4:00 pm
V
70 °F 30 mi - 270° 270° 11 kt METAR CYVR 302300Z 27011KT 30SM FEW050 FEW180 FEW210 21/16 A3009 RMK CU2AC1CI1 AC TR CI TR SLP192 DENSITY ALT 500FT
3:00 pm
V
70 °F 30 mi - 280° 280° 10 kt METAR CYVR 302200Z 28010KT 30SM FEW050 FEW180 FEW210 21/16 A3010 RMK CU2AC1CI1 AC TR CI TR SLP196 DENSITY ALT 500FT
2:00 pm
V
68 °F 30 mi - 280° 280° 9 kt METAR CYVR 302100Z 28009KT 30SM FEW040 FEW170 FEW190 20/16 A3011 RMK CU2AC1AS1 AC TR AS TR SLP200 DENSITY ALT 500FT
1:00 pm
V
68 °F 30 mi - 270° 270° 9 kt METAR CYVR 302000Z 27009KT 30SM FEW040 FEW170 FEW180 FEW240 20/15 A3012 RMK CU2ACC1AC1CS1 ACC TR AC TR CS TR SLP203 DENSITY ALT 400FT
Starsze dane

Pobierz naszą aplikację

Łatwy dostęp do całej pogody lotniczej na telefonie komórkowym i tablecie.
Z wieloma funkcjami niedostępnymi na stronie internetowej, takimi jak wsparcie offline i osobista lista lotnisk.

My i osoby trzecie śledzimy twoje zachowanie w internecie na naszej stronie za pomocą plików cookie. Jeśli kontynuujesz, zakładamy, że zgadzasz się z naszą polityką plików cookie. Dowiedz się więcej